This is the latest recevied weather packets stored in our database for station/object N5ATR. If no packets are shown the sender has not sent any weather packets the latest 10 day(s).
| Time | Temp. | Humidity | Pressure | Rain* | Wind** | Luminosity | Snow |
|---|---|---|---|---|---|---|---|
| 1788174492 | 18.89° C | 51% | 1023 hPa | 0 mm | - | 0 W/m² | - |
| 1788174187 | 18.89° C | 50% | 1023.4 hPa | 0 mm | - | 0 W/m² | - |
| 1788173885 | 18.89° C | 51% | 1023.3 hPa | 0 mm | - | 0 W/m² | - |
| 1788173582 | 18.89° C | 51% | 1023.4 hPa | 0 mm | - | 0 W/m² | - |
| 1788173281 | 18.89° C | 51% | 1023.3 hPa | 0 mm | - | 0 W/m² | - |
| 1788172978 | 18.33° C | 51% | 1023.1 hPa | 0 mm | - | 0 W/m² | - |
| 1788172678 | 17.78° C | 53% | 1023.4 hPa | 0 mm | - | 0 W/m² | - |
| 1788172374 | 17.22° C | 54% | 1023 hPa | 0 mm | - | 0 W/m² | - |
| 1788172074 | 17.78° C | 54% | 1023.3 hPa | 0 mm | - | 0 W/m² | - |
| 1788171774 | 17.78° C | 54% | 1023.1 hPa | 0 mm | - | 0 W/m² | - |
| 1788171470 | 17.78° C | 54% | 1023.1 hPa | 0 mm | - | 0 W/m² | - |
| 1788171165 | 17.78° C | 53% | 1023 hPa | 0 mm | - | 0 W/m² | - |
| 1788170861 | 17.78° C | 53% | 1023 hPa | 0 mm | - | 0 W/m² | - |
| 1788170557 | 17.78° C | 53% | 1023.1 hPa | 0 mm | - | 0 W/m² | - |
| 1788170255 | 17.78° C | 55% | 1023 hPa | 0 mm | - | 0 W/m² | - |
| 1788169951 | 17.78° C | 55% | 1022.8 hPa | 0 mm | - | 0 W/m² | - |
| 1788169645 | 17.78° C | 54% | 1023.1 hPa | 0 mm | - | 0 W/m² | - |
| 1788169341 | 18.89° C | 53% | 1022.6 hPa | 0 mm | - | 0 W/m² | - |
| 1788169037 | 18.89° C | 52% | 1022.6 hPa | 0 mm | - | 0 W/m² | - |
| 1788168732 | 18.89° C | 53% | 1022.6 hPa | 0 mm | - | 0 W/m² | - |
| 1788168429 | 18.89° C | 52% | 1022.8 hPa | 0 mm | - | 0 W/m² | - |
| 1788168124 | 19.44° C | 51% | 1022.9 hPa | 0 mm | - | 0 W/m² | - |
| 1788167823 | 18.89° C | 52% | 1022.8 hPa | 0 mm | - | 0 W/m² | - |
| 1788167520 | 18.33° C | 53% | 1022.6 hPa | 0 mm | - | 0 W/m² | - |
| 1788167219 | 18.33° C | 53% | 1022.6 hPa | 0 mm | - | 0 W/m² | - |
* Rain latest hour (hover to see other rain measurements)
** Current wind speed in m/s (hover to see current wind gust speed)